Date String (YYYY-MM-DD hh:mm:ss) UTC,Instrument flags,Ambient pressure (hPa),Sample flow (lpm),Bypass flow (lpm),Sample temperature (°C),Ambient temperature (°C),ASC tube jacket temperature (°C),LED temperature (°C),Box temperature (°C),Sample RH (%),Span deviation,Mass concentration (μg/m³),Mass concentration (μg/m³),Mass concentration (μg/m³)
DateTimeUTC,F1_M11,P_M11,Q1_M11,Q2_M11,T1_M11,T2_M11,T3_M11,T4_M11,T5_M11,U1_M11,ZSPAN_M11,X0_M11,X2_M11,X1_M11
2022-05-09 22:00:00,,0813.9,5.00,0.00,29.7,29.2,00.0,38.6,31.5,16.5,0000.0,0029.70,0007.63,0003.34
2022-05-09 22:01:00,,0814.0,5.00,0.00,29.7,29.2,00.0,38.6,31.5,16.7,0000.0,0028.62,0007.60,0003.34
2022-05-09 22:02:00,,0813.8,5.00,0.00,29.7,29.2,00.0,38.6,31.5,16.4,0000.0,0029.21,0007.64,0003.34
2022-05-09 22:03:00,,0813.8,5.00,0.00,29.7,29.2,00.0,38.7,31.5,16.0,0000.0,0029.85,0007.73,0003.34
2022-05-09 22:04:00,,0813.8,5.00,0.00,29.8,29.2,00.0,38.7,31.5,16.2,0000.0,0030.47,0007.85,0003.34
2022-05-09 22:05:00,,0814.0,5.00,0.00,29.8,29.2,00.0,38.7,31.5,16.1,0000.0,0031.47,0007.88,0003.35
2022-05-09 22:06:00,,0813.9,5.01,0.00,29.8,29.2,00.0,38.7,31.5,16.0,0000.0,0030.67,0007.82,0003.36
2022-05-09 22:07:00,,0813.9,4.99,0.00,29.8,29.2,00.0,38.7,31.5,16.1,0000.0,0030.86,0007.85,0003.35
2022-05-09 22:08:00,,0813.9,5.01,0.00,29.8,29.2,00.0,38.7,31.6,16.5,0000.0,0030.97,0007.89,0003.35
2022-05-09 22:09:00,,0813.8,5.00,0.00,29.8,29.2,00.0,38.7,31.6,16.2,0000.0,0030.97,0007.88,0003.35
2022-05-09 22:10:00,,0813.8,4.99,0.00,29.8,29.2,00.0,38.7,31.6,16.4,0000.0,0031.18,0007.90,0003.34
2022-05-09 22:11:00,,0813.7,5.00,0.00,29.8,29.2,00.0,38.7,31.6,17.0,0000.0,0031.45,0008.03,0003.34
2022-05-09 22:12:00,,0813.8,5.00,0.00,29.8,29.3,00.0,38.7,31.6,16.7,0000.0,0032.25,0008.07,0003.33
2022-05-09 22:13:00,,0813.8,4.99,0.00,29.8,29.3,00.0,38.8,31.6,16.4,0000.0,0031.82,0008.07,0003.34
2022-05-09 22:14:00,,0813.8,5.00,0.00,29.8,29.3,00.0,38.8,31.6,15.9,0000.0,0032.64,0008.06,0003.36
2022-05-09 22:15:00,,0813.8,5.00,0.00,29.8,29.3,00.0,38.8,31.6,16.4,0000.0,0033.36,0008.03,0003.36
2022-05-09 22:16:00,,0813.7,5.00,0.00,29.8,29.3,00.0,38.8,31.6,16.4,0000.0,0033.10,0007.99,0003.34
2022-05-09 22:17:00,,0813.8,5.01,0.00,29.9,29.3,00.0,38.8,31.6,15.7,0000.0,0034.37,0008.14,0003.35
2022-05-09 22:18:00,,0814.1,5.00,0.00,29.9,29.4,00.0,38.8,31.6,15.9,0000.0,0036.31,0008.19,0003.35
2022-05-09 22:19:00,,0814.1,5.00,0.00,29.9,29.4,00.0,38.8,31.6,16.1,0000.0,0037.73,0008.21,0003.34
2022-05-09 22:20:00,,0814.0,5.00,0.00,29.9,28.6,00.0,38.8,31.4,15.9,0000.0,0039.47,0008.28,0003.35
2022-05-09 22:21:00,,0814.0,4.99,0.00,29.8,26.3,00.0,38.8,31.0,15.6,0000.0,0039.74,0008.41,0003.35
2022-05-09 22:22:00,,0814.2,5.00,0.00,29.7,25.6,00.0,38.7,30.9,16.0,0000.0,0040.14,0008.34,0003.34
2022-05-09 22:23:00,,0814.0,5.01,0.00,29.6,26.0,00.0,38.7,31.0,16.0,0000.0,0040.07,0008.41,0003.34
2022-05-09 22:24:00,,0814.0,5.00,0.00,29.5,26.4,00.0,38.6,31.1,15.9,0000.0,0040.46,0008.42,0003.34
2022-05-09 22:25:00,,0814.0,5.01,0.00,29.5,26.9,00.0,38.6,31.1,15.9,0000.0,0040.16,0008.47,0003.32
2022-05-09 22:26:00,,0814.0,4.98,0.00,29.5,27.3,00.0,38.6,31.2,16.3,0000.0,0039.65,0008.48,0003.31
2022-05-09 22:27:00,,0814.0,5.01,0.00,29.5,27.6,00.0,38.5,31.2,16.7,0000.0,0039.30,0008.53,0003.31
2022-05-09 22:28:00,,0814.0,5.00,0.00,29.5,27.8,00.0,38.5,31.2,15.8,0000.0,0038.75,0008.46,0003.29
2022-05-09 22:29:00,,0814.0,4.99,0.00,29.5,28.0,00.0,38.5,31.3,16.0,0000.0,0036.54,0008.48,0003.28
2022-05-09 22:30:00,,0814.0,5.00,0.00,29.5,28.2,00.0,38.5,31.3,15.9,0000.0,0035.80,0008.46,0003.27
2022-05-09 22:31:00,,0814.0,5.00,0.00,29.5,28.4,00.0,38.5,31.3,16.4,0000.0,0034.50,0008.48,0003.27
2022-05-09 22:32:00,,0814.1,5.02,0.00,29.5,28.5,00.0,38.5,31.3,16.3,0000.0,0035.25,0008.44,0003.27
2022-05-09 22:33:00,,0814.1,4.99,0.00,29.5,28.6,00.0,38.5,31.3,15.8,0000.0,0035.83,0008.50,0003.28
2022-05-09 22:34:00,,0814.0,5.00,0.00,29.6,28.7,00.0,38.5,31.4,16.1,0000.0,0036.44,0008.49,0003.28
2022-05-09 22:35:00,,0814.1,5.00,0.00,29.6,28.7,00.0,38.5,31.4,16.5,0000.0,0036.26,0008.59,0003.28
2022-05-09 22:36:00,,0814.1,4.99,0.00,29.6,28.8,00.0,38.5,31.4,16.9,0000.0,0037.61,0008.70,0003.29
2022-05-09 22:37:00,,0814.0,5.00,0.00,29.6,28.8,00.0,38.5,31.4,16.4,0000.0,0038.35,0008.71,0003.31
2022-05-09 22:38:00,,0814.1,5.00,0.00,29.6,28.9,00.0,38.5,31.5,16.1,0000.0,0039.18,0008.78,0003.32
2022-05-09 22:39:00,,0814.1,5.02,0.00,29.6,28.9,00.0,38.5,31.4,16.2,0000.0,0039.18,0008.82,0003.34
2022-05-09 22:40:00,,0814.1,5.01,0.00,29.7,29.0,00.0,38.5,31.5,16.2,0000.0,0041.06,0008.94,0003.34
2022-05-09 22:41:00,,0814.3,5.00,0.00,29.7,29.0,00.0,38.6,31.5,16.0,0000.0,0039.92,0009.02,0003.35
2022-05-09 22:42:00,,0814.1,5.01,0.00,29.7,29.0,00.0,38.6,31.5,15.7,0000.0,0039.56,0009.09,0003.36
2022-05-09 22:43:00,,0814.1,5.00,0.00,29.7,29.1,00.0,38.6,31.5,16.1,0000.0,0039.66,0009.16,0003.38
2022-05-09 22:44:00,,0814.1,5.00,0.00,29.7,29.1,00.0,38.6,31.5,15.7,0000.0,0040.59,0009.27,0003.39
2022-05-09 22:45:00,,0814.1,5.00,0.00,29.7,29.2,00.0,38.6,31.5,15.6,0000.0,0040.85,0009.38,0003.42
2022-05-09 22:46:00,,0814.2,5.00,0.00,29.7,29.2,00.0,38.6,31.6,15.6,0000.0,0041.42,0009.50,0003.45
2022-05-09 22:47:00,,0814.1,5.00,0.00,29.8,29.2,00.0,38.6,31.5,15.4,0000.0,0042.18,0009.49,0003.47
2022-05-09 22:48:00,,0814.1,5.01,0.00,29.8,29.2,00.0,38.6,31.6,15.7,0000.0,0042.99,0009.62,0003.48
2022-05-09 22:49:00,,0814.1,5.00,0.00,29.8,29.3,00.0,38.7,31.6,16.0,0000.0,0041.67,0009.55,0003.47
2022-05-09 22:50:00,,0814.1,4.99,0.00,29.8,29.2,00.0,38.7,31.6,15.9,0000.0,0041.89,0009.63,0003.48
2022-05-09 22:51:00,,0814.1,5.00,0.00,29.8,29.2,00.0,38.7,31.7,16.2,0000.0,0042.20,0009.73,0003.51
2022-05-09 22:52:00,,0814.2,5.01,0.00,29.8,29.3,00.0,38.7,31.7,15.8,0000.0,0043.40,0009.82,0003.54
2022-05-09 22:53:00,,0814.2,5.00,0.00,29.8,29.2,00.0,38.7,31.7,15.8,0000.0,0043.69,0009.93,0003.55
2022-05-09 22:54:00,,0814.3,5.00,0.00,29.8,29.2,00.0,38.7,31.7,15.2,0000.0,0044.84,0010.03,0003.56
2022-05-09 22:55:00,,0814.4,5.01,0.00,29.9,29.2,00.0,38.7,31.7,15.3,0000.0,0043.67,0010.16,0003.56
2022-05-09 22:56:00,,0814.4,5.01,0.00,29.9,29.2,00.0,38.8,31.7,15.6,0000.0,0043.21,0010.14,0003.54
2022-05-09 22:57:00,,0814.4,5.02,0.00,29.9,29.2,00.0,38.8,31.7,15.5,0000.0,0043.82,0010.11,0003.55
2022-05-09 22:58:00,,0814.4,5.00,0.00,29.9,29.2,00.0,38.8,31.7,15.8,0000.0,0041.78,0010.17,0003.55
2022-05-09 22:59:00,,0814.4,4.99,0.00,29.9,29.3,00.0,38.8,31.7,16.0,0000.0,0041.71,0010.20,0003.55
